When you browse on this site, cookies collect data to enhance your experience and personalize the content and advertising you see.
Visit our Privacy Policy to learn more. By continuing to use the site, you agree to this use of cookies and data.
  • In Romania
  • List of Countries
  • For 7 days
  • Water Temperature
  • Weather Map
  • Weather Widgets
  • user-avatar
    Login

    Hourly Weather Pinsa

    Today, 23 November, Saturday

    Time Temperature Precipitation Wind Pressure Humidity
    00:00 +30°C° 0 mm 3 mps 734 mmHg 19%
    01:00 +29°C° 0 mm 3 mps 733 mmHg 20%
    02:00 +29°C° 0 mm 3 mps 733 mmHg 21%
    03:00 +28°C° 0 mm 3 mps 733 mmHg 22%
    04:00 +28°C° 0 mm 3 mps 733 mmHg 23%
    05:00 +27°C° 0 mm 3 mps 733 mmHg 24%
    06:00 +27°C° 0 mm 3 mps 733 mmHg 25%
    07:00 +29°C° 0 mm 4 mps 734 mmHg 23%
    08:00 +32°C° 0 mm 5 mps 734 mmHg 20%
    09:00 +34°C° 0 mm 6 mps 735 mmHg 17%
    10:00 +36°C° 0 mm 6 mps 734 mmHg 16%
    11:00 +39°C° 0 mm 6 mps 734 mmHg 14%
    12:00 +41°C° 0 mm 6 mps 734 mmHg 12%
    13:00 +41°C° 0 mm 5 mps 733 mmHg 12%
    14:00 +41°C° 0 mm 5 mps 732 mmHg 11%
    15:00 +42°C° 0 mm 4 mps 732 mmHg 11%
    16:00 +40°C° 0 mm 4 mps 732 mmHg 12%
    17:00 +37°C° 0 mm 4 mps 732 mmHg 13%
    18:00 +36°C° 0 mm 3 mps 732 mmHg 15%
    19:00 +35°C° 0 mm 3 mps 733 mmHg 16%
    20:00 +34°C° 0 mm 3 mps 733 mmHg 16%
    21:00 +33°C° 0 mm 3 mps 733 mmHg 17%
    22:00 +33°C° 0 mm 3 mps 733 mmHg 18%
    23:00 +31°C° 0 mm 3 mps 733 mmHg 19%

    Tomorrow, 24 November, Sunday

    Time Temperature Precipitation Wind Pressure Humidity
    00:00 +30°C° 0 mm 3 mps 733 mmHg 19%
    01:00 +30°C° 0 mm 3 mps 733 mmHg 20%
    02:00 +29°C° 0 mm 3 mps 733 mmHg 21%
    03:00 +29°C° 0 mm 4 mps 733 mmHg 22%
    04:00 +28°C° 0 mm 4 mps 733 mmHg 23%
    05:00 +28°C° 0 mm 4 mps 733 mmHg 24%
    06:00 +27°C° 0 mm 4 mps 733 mmHg 24%
    07:00 +29°C° 0 mm 5 mps 734 mmHg 22%
    08:00 +33°C° 0 mm 6 mps 734 mmHg 19%
    09:00 +35°C° 0 mm 7 mps 735 mmHg 16%
    10:00 +38°C° 0 mm 7 mps 734 mmHg 15%
    11:00 +39°C° 0 mm 7 mps 734 mmHg 13%
    12:00 +41°C° 0 mm 7 mps 734 mmHg 12%
    13:00 +41°C° 0 mm 6 mps 733 mmHg 11%
    14:00 +42°C° 0 mm 6 mps 732 mmHg 11%
    15:00 +42°C° 0 mm 5 mps 732 mmHg 11%
    16:00 +40°C° 0 mm 4 mps 732 mmHg 12%
    17:00 +37°C° 0 mm 4 mps 732 mmHg 13%
    18:00 +35°C° 0 mm 3 mps 732 mmHg 14%
    19:00 +35°C° 0 mm 3 mps 732 mmHg 15%
    20:00 +34°C° 0 mm 3 mps 733 mmHg 16%
    21:00 +33°C° 0 mm 3 mps 733 mmHg 16%
    22:00 +33°C° 0 mm 3 mps 733 mmHg 17%
    23:00 +31°C° 0 mm 3 mps 733 mmHg 17%

    Day after tomorrow, 25 November, Monday

    Time Temperature Precipitation Wind Pressure Humidity
    00:00 +30°C° 0 mm 3 mps 733 mmHg 18%
    01:00 +30°C° 0 mm 4 mps 733 mmHg 18%
    02:00 +29°C° 0 mm 4 mps 733 mmHg 19%
    03:00 +28°C° 0 mm 4 mps 732 mmHg 20%
    04:00 +28°C° 0 mm 4 mps 733 mmHg 19%
    05:00 +27°C° 0 mm 4 mps 733 mmHg 19%
    06:00 +27°C° 0 mm 4 mps 733 mmHg 18%
    07:00 +29°C° 0 mm 5 mps 734 mmHg 17%
    08:00 +32°C° 0 mm 6 mps 734 mmHg 15%
    09:00 +35°C° 0 mm 6 mps 735 mmHg 13%
    10:00 +38°C° 0 mm 6 mps 734 mmHg 12%
    11:00 +39°C° 0 mm 6 mps 734 mmHg 11%
    12:00 +41°C° 0 mm 6 mps 734 mmHg 10%
    13:00 +42°C° 0 mm 6 mps 733 mmHg 10%
    14:00 +42°C° 0 mm 5 mps 732 mmHg 9%
    15:00 +42°C° 0 mm 5 mps 732 mmHg 9%
    16:00 +40°C° 0 mm 4 mps 732 mmHg 10%
    17:00 +37°C° 0 mm 4 mps 732 mmHg 12%
    18:00 +35°C° 0 mm 3 mps 732 mmHg 13%
    19:00 +34°C° 0 mm 3 mps 732 mmHg 13%
    20:00 +34°C° 0 mm 3 mps 733 mmHg 14%
    21:00 +33°C° 0 mm 3 mps 733 mmHg 15%
    22:00 +32°C° 0 mm 4 mps 733 mmHg 15%
    23:00 +32°C° 0 mm 4 mps 733 mmHg 15%

    26 November, Tuesday

    Time Temperature Precipitation Wind Pressure Humidity
    00:00 +30°C° 0 mm 4 mps 733 mmHg 16%
    01:00 +30°C° 0 mm 4 mps 733 mmHg 16%
    02:00 +29°C° 0 mm 4 mps 733 mmHg 16%
    03:00 +28°C° 0 mm 4 mps 732 mmHg 17%
    04:00 +28°C° 0 mm 4 mps 733 mmHg 17%
    05:00 +27°C° 0 mm 4 mps 733 mmHg 17%
    06:00 +27°C° 0 mm 4 mps 733 mmHg 17%
    07:00 +29°C° 0 mm 5 mps 733 mmHg 15%
    08:00 +32°C° 0 mm 6 mps 734 mmHg 13%
    09:00 +35°C° 0 mm 7 mps 734 mmHg 11%
    10:00 +38°C° 0 mm 7 mps 734 mmHg 10%
    11:00 +39°C° 0 mm 7 mps 734 mmHg 9%
    12:00 +41°C° 0 mm 7 mps 733 mmHg 8%
    13:00 +41°C° 0 mm 6 mps 733 mmHg 8%
    14:00 +42°C° 0 mm 6 mps 732 mmHg 8%
    15:00 +42°C° 0 mm 5 mps 731 mmHg 8%
    16:00 +40°C° 0 mm 4 mps 732 mmHg 10%
    17:00 +37°C° 0 mm 4 mps 732 mmHg 11%
    18:00 +35°C° 0 mm 3 mps 732 mmHg 12%
    19:00 +34°C° 0 mm 3 mps 732 mmHg 13%
    20:00 +33°C° 0 mm 3 mps 733 mmHg 13%
    21:00 +31°C° 0 mm 3 mps 733 mmHg 14%
    22:00 +31°C° 0 mm 3 mps 733 mmHg 14%
    23:00 +32°C° 0 mm 4 mps 733 mmHg 14%

    27 November, Wednesday

    Time Temperature Precipitation Wind Pressure Humidity
    00:00 +30°C° 0 mm 4 mps 733 mmHg 15%
    01:00 +29°C° 0 mm 4 mps 733 mmHg 15%
    02:00 +29°C° 0 mm 4 mps 732 mmHg 15%
    03:00 +28°C° 0 mm 4 mps 732 mmHg 15%
    04:00 +27°C° 0 mm 4 mps 732 mmHg 15%
    05:00 +26°C° 0 mm 3 mps 732 mmHg 16%
    06:00 +26°C° 0 mm 3 mps 732 mmHg 16%
    07:00 +28°C° 0 mm 4 mps 733 mmHg 14%
    08:00 +32°C° 0 mm 5 mps 734 mmHg 12%
    09:00 +34°C° 0 mm 6 mps 734 mmHg 10%
    10:00 +36°C° 0 mm 6 mps 734 mmHg 10%
    11:00 +39°C° 0 mm 6 mps 733 mmHg 9%
    12:00 +41°C° 0 mm 6 mps 733 mmHg 8%
    13:00 +42°C° 0 mm 5 mps 732 mmHg 8%
    14:00 +42°C° 0 mm 5 mps 732 mmHg 8%
    15:00 +42°C° 0 mm 5 mps 731 mmHg 8%
    16:00 +40°C° 0 mm 4 mps 731 mmHg 9%
    17:00 +37°C° 0 mm 4 mps 731 mmHg 10%
    18:00 +35°C° 0 mm 3 mps 731 mmHg 11%
    19:00 +34°C° 0 mm 4 mps 732 mmHg 12%
    20:00 +34°C° 0 mm 4 mps 732 mmHg 12%
    21:00 +33°C° 0 mm 4 mps 733 mmHg 13%
    22:00 +32°C° 0 mm 4 mps 733 mmHg 13%
    23:00 +32°C° 0 mm 4 mps 733 mmHg 14%

    28 November, Thursday

    Time Temperature Precipitation Wind Pressure Humidity
    00:00 +30°C° 0 mm 4 mps 733 mmHg 14%
    01:00 +29°C° 0 mm 4 mps 733 mmHg 15%
    02:00 +28°C° 0 mm 4 mps 732 mmHg 16%
    03:00 +27°C° 0 mm 3 mps 732 mmHg 17%
    04:00 +27°C° 0 mm 4 mps 732 mmHg 17%
    05:00 +27°C° 0 mm 4 mps 733 mmHg 18%
    06:00 +27°C° 0 mm 4 mps 733 mmHg 18%
    07:00 +29°C° 0 mm 5 mps 734 mmHg 16%
    08:00 +32°C° 0 mm 5 mps 734 mmHg 14%
    09:00 +35°C° 0 mm 6 mps 735 mmHg 12%
    10:00 +38°C° 0 mm 6 mps 734 mmHg 11%
    11:00 +39°C° 0 mm 6 mps 734 mmHg 9%
    12:00 +41°C° 0 mm 6 mps 733 mmHg 8%
    13:00 +42°C° 0 mm 6 mps 733 mmHg 8%
    14:00 +42°C° 0 mm 5 mps 732 mmHg 8%
    15:00 +42°C° 0 mm 5 mps 731 mmHg 8%
    16:00 +40°C° 0 mm 5 mps 732 mmHg 9%
    17:00 +37°C° 0 mm 4 mps 732 mmHg 10%
    18:00 +35°C° 0 mm 3 mps 732 mmHg 11%
    19:00 +34°C° 0 mm 3 mps 732 mmHg 11%
    20:00 +33°C° 0 mm 3 mps 733 mmHg 12%
    21:00 +31°C° 0 mm 3 mps 733 mmHg 13%
    22:00 +30°C° 0 mm 3 mps 733 mmHg 13%
    23:00 +30°C° 0 mm 3 mps 733 mmHg 14%
    Show more